GW0980 Weather Reports


Display with metric or nautical units.
time (UTC)temp
F
wind
direction
speed
MPH
gust
MPH
rain 1hr
in
rain 24hr
in
rain mn
in
humidity
%
barometer
mb
20260901090205 59 281 6.0 12.0 0.00 0.00 0.00 82 1011.2
20260901084553 59 257 6.0 11.0 0.00 0.00 0.00 82 1011.0
20260901083101 59 278 6.0 11.0 0.00 0.00 0.00 82 1011.1
20260901081548 59 290 7.0 14.0 0.00 0.00 0.00 82 1011.3
20260901074550 59 302 7.0 12.0 0.00 0.00 0.00 83 1011.1
20260901073051 59 307 9.0 22.0 0.00 0.00 0.00 83 1011.1
20260901071549 59 271 7.0 13.0 0.00 0.00 0.00 84 1011.0
20260901070056 59 274 7.0 18.0 0.00 0.00 0.00 84 1010.9
20260901064552 59 257 8.0 17.0 0.00 0.00 0.00 84 1010.5
20260901063055 59 314 8.0 22.0 0.00 0.00 0.00 84 1010.6
20260901061548 58 289 9.0 18.0 0.00 0.00 0.00 84 1010.4
20260901060054 58 284 8.0 15.0 0.00 0.00 0.00 84 1010.2
20260901054548 59 285 8.0 16.0 0.00 0.00 0.00 84 1010.3
20260901053057 59 282 7.0 16.0 0.00 0.00 0.00 84 1010.1
20260901051552 59 278 8.0 16.0 0.00 0.00 0.00 84 1010.3
20260901050049 59 280 9.0 17.0 0.00 0.00 0.00 84 1010.3
20260901044550 59 286 7.0 16.0 0.00 0.00 0.00 84 1010.4
20260901043044 59 276 10.0 21.0 0.00 0.00 0.00 84 1010.4
20260901041552 59 287 7.0 15.0 0.00 0.00 0.00 83 1010.4
20260901040051 59 281 9.0 15.0 0.00 0.00 0.00 82 1010.1
20260901034551 59 316 9.0 18.0 0.00 0.00 0.00 82 1010.0
20260901033050 60 282 9.0 21.0 0.00 0.00 0.00 82 1009.6
20260901031552 60 245 10.0 19.0 0.00 0.00 0.00 81 1009.5
20260901030051 61 257 12.0 24.0 0.00 0.00 0.00 79 1009.2
20260901024549 62 268 10.0 24.0 0.00 0.00 0.00 74 1009.2
20260901023055 64 264 10.0 16.0 0.00 0.00 0.00 71 1009.1
20260901021553 65 279 8.0 20.0 0.00 0.00 0.00 68 1008.7
20260901020053 67 276 9.0 16.0 0.00 0.00 0.00 63 1008.7
20260901014559 68 314 10.0 18.0 0.00 0.00 0.00 61 1008.7
20260901013110 69 271 9.0 19.0 0.00 0.00 0.00 59 1008.6
20260901011549 71 288 9.0 18.0 0.00 0.00 0.00 54 1008.6
20260901010059 72 266 7.0 14.0 0.00 0.00 0.00 51 1008.6
20260901004612 73 278 9.0 21.0 0.00 0.00 0.00 51 1008.5
20260901003054 73 278 11.0 20.0 0.00 0.00 0.00 51 1008.5
20260901001550 74 274 10.0 20.0 0.00 0.00 0.00 50 1008.5
20260901000048 75 294 10.0 20.0 0.00 0.00 0.00 49 1008.3
20260831234550 76 272 8.0 16.0 0.00 0.00 0.00 49 1008.3
20260831233055 77 267 8.0 14.0 0.00 0.00 0.00 49 1008.3
20260831231550 77 293 7.0 19.0 0.00 0.00 0.00 48 1008.4
20260831230055 78 269 9.0 14.0 0.00 0.00 0.00 48 1008.3
20260831224550 79 281 8.0 15.0 0.00 0.00 0.00 46 1008.4
20260831223055 79 305 6.0 13.0 0.00 0.00 0.00 46 1008.4
20260831221544 80 269 6.0 14.0 0.00 0.00 0.00 45 1008.3
20260831220055 81 300 8.0 12.0 0.00 0.00 0.00 44 1008.1
20260831214559 83 274 6.0 9.0 0.00 0.00 0.00 40 1008.4
20260831213047 85 86 0.0 2.0 0.00 0.00 0.00 35 1008.5
20260831211551 85 100 0.0 2.0 0.00 0.00 0.00 35 1008.6
20260831210049 84 150 0.0 3.0 0.00 0.00 0.00 36 1008.8
20260831204555 82 0 0.0 1.0 0.00 0.00 0.00 41 1009.0
20260831203100 82 0 0.0 2.0 0.00 0.00 0.00 40 1009.2
20260831201600 82 0 0.0 2.0 0.00 0.00 0.00 41 1009.5
20260831200051 81 35 0.0 2.0 0.00 0.00 0.00 43 1009.7
20260831194546 78 307 0.0 2.0 0.00 0.00 0.00 45 1009.8
20260831193118 78 0 0.0 3.0 0.00 0.00 0.00 46 1010.0
20260831191550 77 0 0.0 1.0 0.00 0.00 0.00 45 1010.2
20260831190050 76 0 0.0 3.0 0.00 0.00 0.00 46 1010.4
20260831184552 75 0 0.0 2.0 0.00 0.00 0.00 49 1010.5
20260831183058 73 156 0.0 3.0 0.00 0.00 0.00 51 1010.8
20260831181606 72 0 0.0 4.0 0.00 0.00 0.00 54 1010.9
20260831180104 71 0 0.0 2.0 0.00 0.00 0.00 56 1011.0
20260831174551 70 0 0.0 3.0 0.00 0.00 0.00 57 1011.1
20260831173050 69 0 0.0 2.0 0.00 0.00 0.00 60 1011.0
20260831171548 67 0 0.0 4.0 0.00 0.00 0.00 65 1011.4
20260831170053 66 71 0.0 3.0 0.00 0.00 0.00 68 1011.5
20260831164606 62 0 0.0 0.0 0.00 0.00 0.00 73 1011.7
20260831163051 60 0 0.0 1.0 0.00 0.00 0.00 77 1011.9
20260831161608 58 307 0.0 0.0 0.00 0.00 0.00 82 1012.0
20260831160104 56 0 0.0 2.0 0.00 0.00 0.00 85 1012.0
20260831154614 54 0 0.0 2.0 0.00 0.00 0.00 88 1012.2
20260831153049 52 0 0.0 1.0 0.00 0.00 0.00 91 1012.3
20260831151551 51 288 1.0 2.0 0.00 0.00 0.00 92 1012.3
20260831150054 49 0 0.0 1.0 0.00 0.00 0.00 93 1012.4
20260831144556 48 0 0.0 1.0 0.00 0.00 0.00 93 1012.3
20260831143052 48 288 1.0 2.0 0.00 0.00 0.00 94 1012.3
20260831141551 48 294 0.0 1.0 0.00 0.00 0.00 93 1012.2
20260831140053 48 308 1.0 2.0 0.00 0.00 0.00 93 1012.3
20260831134604 48 0 0.0 1.0 0.00 0.00 0.00 93 1012.3
20260831133050 49 0 0.0 2.0 0.00 0.00 0.00 93 1012.3
20260831131558 49 0 0.0 3.0 0.00 0.00 0.00 93 1012.5
20260831130050 49 0 0.0 3.0 0.00 0.00 0.00 94 1012.4
20260831124548 49 0 1.0 3.0 0.00 0.00 0.00 93 1012.4
20260831123049 49 295 1.0 3.0 0.00 0.00 0.00 93 1012.5
20260831121554 49 296 0.0 2.0 0.00 0.00 0.00 93 1012.7
20260831120051 49 295 1.0 3.0 0.00 0.00 0.00 92 1012.8
20260831114550 50 295 0.0 2.0 0.00 0.00 0.00 93 1012.9
20260831113058 49 0 0.0 2.0 0.00 0.00 0.00 93 1013.0
20260831111553 49 297 0.0 2.0 0.00 0.00 0.00 93 1013.0
20260831110049 50 0 0.0 2.0 0.00 0.00 0.00 92 1013.1
20260831104554 50 305 1.0 3.0 0.00 0.00 0.00 92 1013.1
20260831103051 50 303 0.0 2.0 0.00 0.00 0.00 92 1013.1
20260831101548 51 0 0.0 2.0 0.00 0.00 0.00 91 1013.2
20260831100106 51 297 0.0 1.0 0.00 0.00 0.00 91 1013.4
20260831094550 51 0 1.0 3.0 0.00 0.00 0.00 92 1013.6
20260831093057 51 0 0.0 2.0 0.00 0.00 0.00 91 1013.7
20260831091551 51 295 1.0 3.0 0.00 0.00 0.00 92 1013.9